Location: Rock Island IL
(41.5000°N, 90.5500°W)
Time: 11:10:12
(UTC-05:00)

Daily predictions for brighter satellites

Satellite Brightness Start Highest point End
(mag) Time Altitude Azimuth Time Altitude Azimuth Time Altitude Azimuth
BREEZE-M DEB (TANK) 4.4 20:45:37 10° WNW 20:49:27 44° SSW 21:01:51 10° SE
Cosmos 2369 Rocket 4.0 20:52:23 10° N 20:56:15 18° NE 21:00:04 10° E
Cosmos 2058 Rocket 3.0 20:55:38 10° N 21:00:02 84° E 21:04:23 10° S
APEX 3.7 20:56:57 10° NNW 21:01:00 71° ENE 21:06:19 10° SSE
Cosmos 1666 3.0 20:57:16 10° N 21:01:07 51° E 21:04:53 10° SSE
CZ-2D R/B 4.5 20:57:57 10° S 21:01:41 44° W 21:05:27 10° NNW
Cosmos 2285 Rocket 4.1 20:55:40 10° NNW 21:02:02 89° ENE 21:08:23 10° SSE
Abrixas rocket 2.6 20:59:21 10° WNW 21:02:44 60° SSW 21:06:07 10° SE
Cosmos 1602 Rocket 4.2 20:59:39 10° SSE 21:03:49 39° E 21:07:59 10° NNE
Atlas Centaur 2 3.7 20:57:59 10° SW 21:04:09 30° SSE 21:11:05 10° ESE
ERS-1 Rocket 3.0 20:59:09 10° SSE 21:04:09 77° ENE 21:09:12 10° N
SL-16 R/B 2.5 20:58:44 10° SSW 21:04:22 74° WNW 21:10:04 10° NNE
Cosmos 2251 Rocket 4.4 20:59:34 10° SW 21:04:47 56° WNW 21:10:05 10° NNE
Meteor 1-15 Rocket 4.3 21:00:19 10° N 21:05:54 69° E 21:11:32 10° SSE
USA 234 4.1 21:02:36 10° E 21:08:45 45° NNE 21:14:55 10° NW
Cosmos 1464 Rocket 4.0 21:04:31 10° N 21:10:41 83° E 21:16:52 10° S
Envisat 3.4 21:06:12 10° SE 21:11:03 47° ENE 21:15:54 10° N
ATLAS CENTAUR R/B 4.2 21:08:23 10° WSW 21:12:46 30° NW 21:17:12 10° NNE
Cosmos 1812 Rocket 4.4 21:10:15 10° N 21:14:17 35° ENE 21:18:12 11° SE
ISS -2.4 21:11:46 10° SSW 21:14:34 27° SE 21:17:23 10° ENE
deb Chang Zheng 4 3.6 21:11:31 10° NNE 21:15:57 81° ESE 21:20:18 10° SSW
Cosmos 1743 4.3 21:13:49 10° NNW 21:17:22 36° W 21:20:52 10° SSW
PSLV R/B 3.6 21:15:13 10° WSW 21:18:37 47° SSE 21:22:04 10° E
Cosmos 1939 Rocket 3.0 21:17:09 10° SSE 21:21:18 71° ENE 21:25:26 10° N
GRACE-1 4.5 21:19:24 10° NNE 21:22:08 39° E 21:24:30 13° SSE
GRACE-2 4.5 21:19:50 10° NNE 21:22:35 40° E 21:24:56 13° SSE
H-2A R/B 2.3 21:23:27 10° S 21:27:40 71° WSW 21:32:02 10° NNW
Lacrosse 5 rocket 3.9 21:25:05 10° W 21:28:16 23° NNW 21:31:37 10° NNE
SPOT 5 2.8 21:24:58 11° SSE 21:29:05 57° ENE 21:33:21 10° N
Cosmos 2034 Rocket 4.1 21:23:34 10° N 21:29:59 87° E 21:36:18 10° S
COSMOS 2455 3.0 21:24:24 10° S 21:30:10 50° ESE 21:35:58 10° NE
ALOS 4.0 21:26:41 10° SSW 21:30:47 30° W 21:34:56 10° NW
Cosmos 1603 3.6 21:27:51 10° SSW 21:33:27 76° ESE 21:39:04 10° NNE
BREEZE-M DEB (TANK) 2.9 21:31:49 10° WNW 21:34:10 33° SW 21:35:26 17° SSE
CZ-4 SHROUD 3.2 21:31:44 14° SSE 21:34:20 70° ENE 21:37:29 10° N
Cosmos 1626 Rocket 3.6 21:31:56 10° S 21:36:22 89° E 21:40:49 10° N
YAOGAN 6 3.4 21:39:45 18° SE 21:42:00 37° ENE 21:45:29 10° N
Cosmos 2228 4.0 21:39:05 10° NNW 21:43:20 49° W 21:47:34 10° SSW
Terra 3.7 21:43:54 11° E 21:46:28 17° ENE 21:49:26 10° NNE
Cosmos 1992 Rocket 4.3 21:41:52 10° N 21:46:58 51° ENE 21:50:30 19° SE
Cosmos 1346 Rocket 4.0 21:48:52 21° ESE 21:50:07 25° E 21:53:22 10° NE
Cosmos 1953 Rocket 4.4 21:52:36 21° SE 21:54:39 32° E 21:58:36 10° NNE
Cosmos 1943 3.4 21:51:33 10° S 21:56:58 49° ESE 22:02:25 10° NE
PSLV R/B 3.8 21:55:18 17° S 21:57:27 53° W 22:00:31 10° NNW
MetOp-A 4.1 21:55:39 16° SSE 21:59:58 89° ENE 22:05:22 10° NNW
H-2A R/B 3.3 21:57:40 17° ESE 22:00:12 25° ENE 22:04:16 10° NNE
Cosmos 1943 Rocket 3.7 21:57:04 10° N 22:01:24 23° NE 22:04:49 14° E
Lacrosse 4 Rocket 2.1 22:03:03 27° SE 22:03:58 30° ESE 22:07:35 10° NE
Cosmos 1190 Rocket 4.2 22:03:10 16° S 22:07:15 51° ESE 22:12:24 10° NNE
UNK 4.3 22:02:12 10° NNE 22:07:39 84° WNW 22:13:21 10° SSW
SeaSat 1 2.7 22:04:20 19° SSE 22:07:48 65° WSW 22:12:43 10° NNW
SPOT 1/Viking Rocket 3.5 22:05:20 22° SSE 22:08:44 77° ENE 22:13:54 10° N
CZ-4B R/B 3.6 22:11:38 10° NNE 22:16:45 83° WNW 22:21:56 10° SSW
Cosmos 676 Rocket 4.4 22:21:48 29° SSE 22:23:54 42° ESE 22:28:55 10° NNE
DELTA 2 DEB (DPAF) 4.2 22:22:59 33° SE 22:24:49 64° ENE 22:29:17 10° N
Cosmos 1766 3.9 22:21:47 10° N 22:25:37 42° ENE 22:26:30 36° ESE
Cosmos 1758 Rocket 3.6 22:27:03 35° SSE 22:28:41 62° E 22:33:01 10° NNE
CARTOSAT-1 4.1 22:31:25 35° ESE 22:32:37 44° ENE 22:36:45 10° N
ARGOS 3.2 22:33:16 28° S 22:36:15 76° WSW 22:41:43 10° NNW
ATLAS 3B R/B 2.9 22:31:42 10° SSW 22:39:24 80° ESE 22:46:58 10° NE
Cosmos 2369 Rocket 2.2 22:35:15 10° NNW 22:40:55 76° WSW 22:43:28 34° S
Cosmos 1825 Rocket 4.4 22:43:05 17° SSW 22:46:15 48° W 22:50:34 10° N
CZ-4C R/B 3.5 22:46:15 43° S 22:47:32 72° WSW 22:51:38 10° NNW
ISS -1.8 22:47:50 10° W 22:50:55 38° NNW 22:54:00 10° NE
USA 234 3.4 22:48:30 33° SSE 22:51:35 63° SW 22:58:07 10° NW
Atlas Centaur 2 3.5 22:45:56 10° WSW 22:53:07 38° S 22:55:21 33° SSE
SL-27 R/B 3.8 22:54:51 27° NE 22:54:51 27° NE 22:56:46 10° NE
Cosmos 407 Rocket 3.6 22:51:26 21° SSW 22:55:04 76° WNW 23:00:19 10° NNE
PSLV R/B 3.4 22:52:37 10° W 22:55:53 73° WSW 22:55:53 73° WSW
Spot 2 4.3 22:53:37 10° NNE 22:58:25 70° ESE 22:59:46 47° S
Cosmos 1805 3.9 22:54:46 10° N 22:58:32 41° ENE 22:58:32 41° ENE
Cosmos 1842 Rocket 4.4 22:54:58 10° N 22:58:59 34° ENE 22:59:17 33° E
SL-08 RB Rocket 4.4 22:59:24 32° SSW 23:01:04 46° W 23:05:27 10° NNW
Cosmos 1953 2.3 23:02:34 10° N 23:06:33 66° E 23:06:37 66° E
Cosmos 2263 4.3 23:01:33 10° NNW 23:07:07 64° WSW 23:08:56 42° S
Landsat 7 4.2 23:06:30 40° SSW 23:07:56 56° W 23:12:37 10° NNW
Spot 4 3.7 23:09:15 57° SSE 23:10:13 86° ENE 23:15:02 10° NNW
COSMOS 2406 3.4 23:09:27 46° SE 23:10:17 50° ESE 23:15:48 10° NE
Nadezhda 4 Rocket 4.1 23:08:38 42° SSE 23:10:38 62° E 23:16:53 10° NNE
Cosmos 2208 Rocket 4.4 23:07:17 10° N 23:12:18 48° ENE 23:13:24 41° ESE
Cosmos 1954 Rocket 4.0 23:12:38 41° SSW 23:14:35 88° WNW 23:19:55 10° NNE
USA 238 DEB 3.7 23:13:44 35° S 23:16:47 62° ESE 23:23:45 10° NE
USA 238 3.7 23:13:55 35° S 23:16:53 62° ESE 23:23:51 10° NE
CZ-4B R/B 4.3 23:17:28 10° ENE 23:17:28 10° ENE 23:17:44 10° ENE
Terra 2.2 23:22:47 47° SW 23:23:44 56° W 23:28:26 10° NNW
CZ-4C R/B 3.8 23:26:52 18° E 23:26:52 18° E 23:29:24 10° ENE
IGS 5A 3.9 23:27:36 49° WSW 23:27:52 50° W 23:31:56 10° NNW
Cosmos 1544 3.9 23:26:58 10° N 23:29:59 45° NE 23:29:59 45° NE
SL-23 DEB 4.1 23:27:00 10° WSW 23:32:23 71° NW 23:35:51 10° NE
Cosmos 1741 Rocket 3.9 23:32:35 63° SE 23:33:02 66° ESE 23:38:20 10° NNE
Cosmos 1707 4.3 23:35:25 27° ENE 23:35:25 27° ENE 23:37:49 10° NNE
Cosmos 2084 3.4 23:30:30 10° NNW 23:34:32 78° NNE 23:34:32 78° NNE
H-2A R/B 2.9 23:38:18 34° SW 23:39:24 38° W 23:44:06 10° NNW
H-2A R/B 4.4 23:37:54 10° NE 23:39:24 18° ENE 23:39:24 18° ENE
Lacrosse 4 Rocket 3.5 23:39:23 10° WSW 23:42:42 24° NW 23:46:04 10° N
Cosmos 2221 3.6 23:41:16 10° N 23:44:51 34° ENE 23:44:51 34° ENE
Cosmos 1943 Rocket 2.4 23:40:05 10° NNW 23:45:31 56° WSW 23:46:20 51° SW
Cosmos-2242 4.2 23:44:07 10° NNW 23:48:05 33° W 23:48:31 32° WSW
Cosmos 1570 Rocket 4.0 23:44:04 10° NNW 23:49:25 74° WSW 23:50:01 67° SSW
Cosmos 2026 Rocket 4.2 23:49:48 47° ESE 23:50:32 50° E 23:56:22 10° NNE
Cosmos 1850 Rocket 3.9 23:50:16 66° SW 23:51:01 83° WNW 23:56:16 10° NNE
NOSS 3-2 (C) 4.3 23:51:59 33° E 23:51:59 33° E 23:57:06 10° NE
Cosmos 1758 4.5 23:48:25 10° NNW 23:52:08 35° W 23:52:08 35° W
